• In Hungary
  • List of Countries
  • For 7 days
  • Water Temperature
  • Satellite Maps
  • Weather Map
  • News
  • Weather Widgets
  • user-avatar
    Login

    Hourly Weather Gremyachinsk

    Today, 24 February, Saturday

    Time Temperature Precipitation Wind Pressure Humidity
    00:00 -19°C° 0 mm 2 mps 726 mmHg 86%
    01:00 -19°C° 0 mm 2 mps 726 mmHg 84%
    02:00 -19°C° 0 mm 2 mps 726 mmHg 84%
    03:00 -19°C° 0 mm 2 mps 726 mmHg 84%
    04:00 -19°C° 0 mm 2 mps 726 mmHg 85%
    05:00 -18°C° 0 mm 2 mps 726 mmHg 85%
    06:00 -18°C° 0 mm 2 mps 726 mmHg 86%
    07:00 -18°C° 0 mm 2 mps 726 mmHg 86%
    08:00 -14°C° 0 mm 1 mps 725 mmHg 84%
    09:00 -11°C° 0 mm 1 mps 725 mmHg 82%
    10:00 -9°C° 0 mm 1 mps 725 mmHg 80%
    11:00 -7°C° 0 mm 1 mps 725 mmHg 80%
    12:00 -6°C° 0 mm 1 mps 724 mmHg 79%
    13:00 -6°C° 0 mm 1 mps 724 mmHg 79%
    14:00 -6°C° 0 mm 1 mps 724 mmHg 81%
    15:00 -6°C° 0 mm 1 mps 724 mmHg 83%
    16:00 -7°C° 0 mm 0 mps 724 mmHg 85%
    17:00 -8°C° 0 mm 1 mps 724 mmHg 87%
    18:00 -10°C° 0 mm 1 mps 724 mmHg 89%
    19:00 -12°C° 0 mm 1 mps 723 mmHg 92%
    20:00 -13°C° 0 mm 1 mps 723 mmHg 92%
    21:00 -14°C° 0 mm 1 mps 723 mmHg 91%
    22:00 -14°C° 0 mm 1 mps 723 mmHg 91%
    23:00 -14°C° 0 mm 1 mps 723 mmHg 91%

    Tomorrow, 25 February, Sunday

    Time Temperature Precipitation Wind Pressure Humidity
    00:00 -15°C° 0 mm 1 mps 723 mmHg 91%
    01:00 -15°C° 0 mm 1 mps 723 mmHg 90%
    02:00 -15°C° 0 mm 1 mps 723 mmHg 90%
    03:00 -15°C° 0 mm 1 mps 722 mmHg 90%
    04:00 -15°C° 0 mm 1 mps 722 mmHg 89%
    05:00 -15°C° 0 mm 1 mps 722 mmHg 89%
    06:00 -15°C° 0 mm 1 mps 722 mmHg 88%
    07:00 -15°C° 0 mm 1 mps 722 mmHg 88%
    08:00 -12°C° 0 mm 1 mps 722 mmHg 84%
    09:00 -10°C° 0 mm 1 mps 722 mmHg 81%
    10:00 -7°C° 0 mm 1 mps 722 mmHg 78%
    11:00 -6°C° 0 mm 1 mps 722 mmHg 76%
    12:00 -3°C° 0 mm 1 mps 721 mmHg 75%
    13:00 -2°C° 0 mm 1 mps 721 mmHg 73%
    14:00 -3°C° 0 mm 1 mps 721 mmHg 77%
    15:00 -3°C° 0 mm 1 mps 721 mmHg 81%
    16:00 -4°C° 0 mm 1 mps 721 mmHg 85%
    17:00 -7°C° 0 mm 1 mps 721 mmHg 87%
    18:00 -9°C° 0 mm 1 mps 722 mmHg 89%
    19:00 -10°C° 0 mm 0 mps 722 mmHg 91%
    20:00 -11°C° 0 mm 1 mps 723 mmHg 90%
    21:00 -11°C° 0 mm 1 mps 723 mmHg 90%
    22:00 -11°C° 0 mm 1 mps 723 mmHg 89%
    23:00 -10°C° 0.1 mm 1 mps 724 mmHg 90%

    Day after tomorrow, 26 February, Monday

    Time Temperature Precipitation Wind Pressure Humidity
    00:00 -12°C° 0.1 mm 2 mps 724 mmHg 92%
    01:00 -10°C° 0.1 mm 2 mps 725 mmHg 93%
    02:00 -10°C° 0.1 mm 2 mps 725 mmHg 93%
    03:00 -10°C° 0.1 mm 2 mps 725 mmHg 93%
    04:00 -12°C° 0.1 mm 3 mps 726 mmHg 93%
    05:00 -14°C° 0 mm 3 mps 726 mmHg 93%
    06:00 -15°C° 0 mm 3 mps 726 mmHg 93%
    07:00 -16°C° 0 mm 3 mps 726 mmHg 93%
    08:00 -15°C° 0 mm 3 mps 727 mmHg 90%
    09:00 -14°C° 0 mm 3 mps 727 mmHg 87%
    10:00 -13°C° 0 mm 3 mps 727 mmHg 83%
    11:00 -12°C° 0 mm 3 mps 727 mmHg 82%
    12:00 -12°C° 0 mm 3 mps 726 mmHg 80%
    13:00 -10°C° 0 mm 3 mps 726 mmHg 79%
    14:00 -10°C° 0 mm 2 mps 726 mmHg 80%
    15:00 -10°C° 0 mm 2 mps 726 mmHg 82%
    16:00 -10°C° 0 mm 2 mps 725 mmHg 83%
    17:00 -13°C° 0 mm 2 mps 726 mmHg 86%
    18:00 -12°C° 0 mm 1 mps 726 mmHg 89%
    19:00 -14°C° 0 mm 1 mps 726 mmHg 92%
    20:00 -14°C° 0 mm 1 mps 726 mmHg 92%
    21:00 -14°C° 0 mm 1 mps 726 mmHg 92%
    22:00 -15°C° 0 mm 1 mps 726 mmHg 92%
    23:00 -15°C° 0 mm 1 mps 725 mmHg 92%

    27 February, Tuesday

    Time Temperature Precipitation Wind Pressure Humidity
    00:00 -16°C° 0 mm 1 mps 725 mmHg 92%
    01:00 -16°C° 0 mm 1 mps 725 mmHg 92%
    02:00 -16°C° 0 mm 1 mps 725 mmHg 91%
    03:00 -17°C° 0 mm 1 mps 724 mmHg 91%
    04:00 -17°C° 0 mm 1 mps 724 mmHg 90%
    05:00 -17°C° 0 mm 1 mps 724 mmHg 89%
    06:00 -17°C° 0 mm 1 mps 724 mmHg 89%
    07:00 -17°C° 0 mm 1 mps 724 mmHg 88%
    08:00 -15°C° 0 mm 1 mps 723 mmHg 84%
    09:00 -12°C° 0 mm 1 mps 723 mmHg 80%
    10:00 -10°C° 0 mm 1 mps 723 mmHg 76%
    11:00 -9°C° 0 mm 1 mps 722 mmHg 75%
    12:00 -9°C° 0 mm 1 mps 721 mmHg 75%
    13:00 -9°C° 0 mm 1 mps 721 mmHg 74%
    14:00 -9°C° 0 mm 1 mps 721 mmHg 76%
    15:00 -10°C° 0 mm 1 mps 721 mmHg 79%
    16:00 -10°C° 0 mm 1 mps 720 mmHg 81%
    17:00 -12°C° 0 mm 1 mps 721 mmHg 85%
    18:00 -14°C° 0 mm 1 mps 721 mmHg 88%
    19:00 -16°C° 0 mm 1 mps 722 mmHg 91%
    20:00 -18°C° 0 mm 2 mps 722 mmHg 91%
    21:00 -18°C° 0 mm 2 mps 722 mmHg 91%
    22:00 -19°C° 0 mm 2 mps 723 mmHg 91%
    23:00 -19°C° 0 mm 2 mps 723 mmHg 91%

    28 February, Wednesday

    Time Temperature Precipitation Wind Pressure Humidity
    00:00 -19°C° 0 mm 2 mps 723 mmHg 92%
    01:00 -19°C° 0 mm 2 mps 723 mmHg 93%
    02:00 -19°C° 0 mm 2 mps 723 mmHg 93%
    03:00 -19°C° 0 mm 2 mps 723 mmHg 93%
    04:00 -20°C° 0 mm 2 mps 723 mmHg 94%
    05:00 -20°C° 0 mm 2 mps 723 mmHg 94%
    06:00 -19°C° 0 mm 2 mps 724 mmHg 94%
    07:00 -19°C° 0 mm 2 mps 724 mmHg 94%
    08:00 -18°C° 0 mm 2 mps 724 mmHg 91%
    09:00 -18°C° 0 mm 3 mps 724 mmHg 88%
    10:00 -17°C° 0 mm 3 mps 724 mmHg 84%
    11:00 -16°C° 0 mm 3 mps 724 mmHg 83%
    12:00 -16°C° 0 mm 3 mps 723 mmHg 82%
    13:00 -16°C° 0 mm 3 mps 723 mmHg 81%
    14:00 -16°C° 0 mm 3 mps 723 mmHg 82%
    15:00 -17°C° 0 mm 3 mps 723 mmHg 83%
    16:00 -17°C° 0 mm 3 mps 722 mmHg 84%
    17:00 -17°C° 0 mm 2 mps 722 mmHg 87%
    18:00 -19°C° 0 mm 2 mps 723 mmHg 90%
    19:00 -20°C° 0 mm 2 mps 723 mmHg 93%
    20:00 -21°C° 0 mm 2 mps 723 mmHg 93%
    21:00 -21°C° 0 mm 2 mps 722 mmHg 93%
    22:00 -23°C° 0 mm 2 mps 722 mmHg 93%
    23:00 -20°C° 0 mm 1 mps 722 mmHg 93%

    1 March, Thursday

    Time Temperature Precipitation Wind Pressure Humidity
    00:00 -21°C° 0 mm 1 mps 721 mmHg 93%
    01:00 -21°C° 0 mm 1 mps 721 mmHg 93%
    02:00 -22°C° 0 mm 1 mps 721 mmHg 92%
    03:00 -22°C° 0 mm 1 mps 721 mmHg 92%
    04:00 -22°C° 0 mm 1 mps 720 mmHg 91%
    05:00 -22°C° 0 mm 1 mps 721 mmHg 91%
    06:00 -22°C° 0 mm 1 mps 721 mmHg 90%
    07:00 -21°C° 0 mm 1 mps 721 mmHg 89%
    08:00 -19°C° 0 mm 1 mps 721 mmHg 86%
    09:00 -16°C° 0 mm 1 mps 721 mmHg 83%
    10:00 -16°C° 0 mm 2 mps 721 mmHg 80%
    11:00 -15°C° 0 mm 2 mps 721 mmHg 80%
    12:00 -16°C° 0 mm 3 mps 721 mmHg 80%
    13:00 -17°C° 0 mm 4 mps 721 mmHg 81%
    14:00 -17°C° 0 mm 4 mps 721 mmHg 82%
    15:00 -18°C° 0 mm 4 mps 721 mmHg 82%
    16:00 -18°C° 0 mm 4 mps 721 mmHg 83%
    17:00 -19°C° 0 mm 4 mps 722 mmHg 86%
    18:00 -20°C° 0 mm 4 mps 723 mmHg 88%
    19:00 -22°C° 0 mm 4 mps 723 mmHg 91%
    20:00 -22°C° 0 mm 4 mps 723 mmHg 91%
    21:00 -23°C° 0 mm 4 mps 724 mmHg 92%
    22:00 -23°C° 0 mm 4 mps 724 mmHg 92%
    23:00 -22°C° 0 mm 3 mps 724 mmHg 93%
    Show more